COSMOS 2251 DEB, 33838

Orbit data source: Space-Track

COSMOS 2251 DEB, 33838 is space debris in LEO originally from a launch on Wed, 16 Jun 1993 UTC launched from the Plesetsk Missile And Space Complex (PKMTR). The debris from Iridium 33, an American commercial communications satellite, has been tracked extensively since its accidental collision with the defunct Russian satellite Cosmos 2251 in 2009. This event, occurring at high speed in low Earth orbit (LEO), generated thousands of pieces of space debris, significantly increasing the risk of further collisions. The Iridium 33 debris cloud has impacted space traffic management and orbital debris mitigation strategies, making it a subject of ongoing study in space situational awareness.

Loading next visibility...
Identifier
33838, 1993-036CF
Orbit
LEO
Country
Flag of CISCIS
Related business
Manufacturer
Unknown
Mission
Spacecraft
Bus & Motor
Unknown
Mass
Unknown
Launch date (UTC)
1993-06-16 (32 years ago)
Launch vehicle
Unknown
Launch site
Plesetsk Missile And Space Complex (PKMTR)
Object type
Payload
Rocket body
Debris
Shape & HBR
Unknown shape, 0.2 m
Radar Cross Section
Small (<0.1 m²)

Expand to show TLE details & history
Last TLE update: 23 hours ago

TLE from 23 hours ago
0 COSMOS 2251 DEB
1 33838U 93036CF  25309.45367105  .00001812  00000-0  49097-3 0  9990
2 33838  74.0387 219.6270 0026763 347.1655 132.7383 14.48193413880290
Epoch: 2025-11-05T10:53Z
TLE epoch observation values (Epoch: 2025-11-05T10:53:17.178Z)
Latitude
56.36752°
Longitude
166.06002°
Altitude
753.561 km
Speed
7.477 km/s
True Right ascension
00h 57m 13s
True Declination
56° 12' 31"
Sunlit
Object was in full shadow at epoch
Visualization orbit readout
Latitude
Unknown
Longitude
Unknown
Altitude
Unknown
Speed
Unknown
Apparent Right ascension
Unknown
Apparent Declination
Unknown
Sunlit
N/A
Visualization observer readout
Local Sidereal Time
05:41:38
Azimuth
Unknown
Elevation
Unknown
Doppler factor
Unknown
Orbital elements
Apogee altitude
748.187 km
Perigee altitude
710.144 km
Semi-major axis
7,107.302 km
Eccentricity
0.00268
Inclination
74.0387°
RAAN
219.627°
Arg. of periapsis
347.1655°
True anomaly
132.96303°
Mean anomaly
132.7383°
Eccentric anomaly
132.85072°
Mean motion
3.62231 °/min
Orbital period
99.38 mins
BSTAR
0.00049097
Loading maneuver chart data...
Computing Atmospheric mass density...

Documentation

Showing up to 5 results
|